Location: Sternwarte ZA, Rosenfeld-Brittheim
(48.2889°N, 8.6789°E)
Time: 17:45:24
(UTC+02:00)

ISS - Pass Details

Date: 23 May 2020
Orbit: 417 x 420 km, 51.6° (Epoch: 26 May)

Event Time Altitude Azimuth Distance (km) Brightness Sun altitude
Rises 22:17:26 0° 276° (W) 2,364 0.9 -9.5°
Reaches altitude 10° 22:19:35 10° 283° (WNW) 1,501 0.0 -9.8°
Maximum altitude 22:22:50 45° 358° (N) 583 -2.6 -10.2°
Drops below altitude 10° 22:26:06 10° 73° (ENE) 1,503 -1.2 -10.5°
Enters shadow 22:28:04 - 79° (E) 2,289 -0.3 -10.7°
